Linden, NJ

5:49 PM EST on January 22, 2018 (GMT -0500)
Linden

Weather History for KLDJ - September, 2012

Change the Weather History Date:

Sunday, September 30, 2012

  Actual Average (KEWR) Record (KEWR)
Temperature  
Mean Temperature 63 °F -  
Max Temperature 70 °F 70 °F 89 °F (1986)
Min Temperature 56 °F 53 °F 38 °F (1942)
Degree Days  
Heating Degree Days 2    
Growing Degree Days 13 (Base 50)    
Moisture  
Dew Point 51 °F    
Average Humidity 71    
Maximum Humidity 91    
Minimum Humidity 42    
Precipitation  
Precipitation 0.00 in - - ()
Sea Level Pressure  
Sea Level Pressure 29.83 in    
Wind  
Wind Speed 5 mph (NW)    
Max Wind Speed 14 mph    
Max Gust Speed 21 mph    
Visibility 10 miles    
Events Thunderstorm    
Averages and records for this station are not official NWS values.
T = Trace of Precipitation, MM = Missing Value Source: NWS Daily Summary

Daily Weather History Graph

Daily Weather History Graph

Search for Another Location

Airport or City:

Trip Planner

Search our weather history database for the weather conditions in past years. The results will help you decide how hot, cold, wet, or windy it might be!

Date:

Astronomy

Sep. 30, 2012 Rise Set
Actual Time 6:52 AM EDT 6:39 PM EDT
Civil Twilight 6:25 AM EDT 7:07 PM EDT
Nautical Twilight 5:53 AM EDT 7:38 PM EDT
Astronomical Twilight 5:21 AM EDT 8:10 PM EDT
Moon 6:41 PM EDT (9/30) 7:21 AM EDT (9/30)
Length of Visible Light 12h 41m
Length of Day
11h 47m
Full, 100% of the Moon is Illuminated
Sep 30
Full
Oct 8
Last Quarter
Oct 15
New
Oct 21
First Quarter
Oct 29
Full

Hourly Weather History & Observations

Time (EDT) Temp. Dew Point Humidity Pressure Visibility Wind Dir Wind Speed Gust Speed Precip Events Conditions
12:15 AM 60.1 °F 54.5 °F 82% 29.89 in 10.0 mi NNW 4.6 mph - N/A   Scattered Clouds
12:35 AM 59.9 °F 54.5 °F 82% 29.88 in 10.0 mi NNW 3.5 mph - N/A   Scattered Clouds
12:55 AM 59.5 °F 54.5 °F 83% 29.87 in 10.0 mi North 4.6 mph - N/A   Clear
1:15 AM 59.0 °F 54.5 °F 85% 29.88 in 10.0 mi North 4.6 mph - N/A   Clear
1:55 AM 58.3 °F 54.5 °F 87% 29.88 in 10.0 mi NNW 4.6 mph - N/A   Clear
2:15 AM 57.7 °F 54.1 °F 88% 29.87 in 10.0 mi NNW 4.6 mph - N/A   Clear
2:35 AM 57.2 °F 54.0 °F 89% 29.87 in 10.0 mi Calm Calm - N/A   Clear
2:55 AM 57.2 °F 54.0 °F 89% 29.86 in 10.0 mi NNW 4.6 mph - N/A   Clear
3:15 AM 56.7 °F 53.6 °F 89% 29.86 in 10.0 mi NNW 3.5 mph - N/A   Clear
3:35 AM 56.7 °F 53.8 °F 90% 29.85 in 10.0 mi North 4.6 mph - N/A   Clear
3:55 AM 56.3 °F 53.6 °F 91% 29.86 in 10.0 mi NNW 3.5 mph - N/A   Clear
4:15 AM 56.3 °F 53.6 °F 91% 29.86 in 10.0 mi NNW 3.5 mph - N/A   Clear
4:35 AM 56.3 °F 53.6 °F 91% 29.86 in 10.0 mi NNW 3.5 mph - N/A   Scattered Clouds
4:55 AM 56.5 °F 53.6 °F 90% 29.86 in 10.0 mi NNW 3.5 mph - N/A   Scattered Clouds
5:15 AM 56.3 °F 53.6 °F 91% 29.86 in 10.0 mi NW 3.5 mph - N/A   Scattered Clouds
5:35 AM 56.5 °F 53.6 °F 90% 29.86 in 10.0 mi NNW 3.5 mph - N/A   Scattered Clouds
5:55 AM 56.7 °F 53.6 °F 89% 29.86 in 10.0 mi NNW 4.6 mph - N/A   Clear
6:15 AM 56.7 °F 53.6 °F 89% 29.85 in 10.0 mi North 4.6 mph - N/A   Clear
6:35 AM 56.7 °F 53.4 °F 89% 29.85 in 10.0 mi NNW 3.5 mph - N/A   Clear
6:55 AM 56.3 °F 53.2 °F 89% 29.85 in 10.0 mi NW 3.5 mph - N/A   Clear
7:15 AM 56.5 °F 53.6 °F 90% 29.86 in 10.0 mi NNW 4.6 mph - N/A   Mostly Cloudy
7:35 AM 57.0 °F 53.6 °F 88% 29.86 in 10.0 mi NNW 5.8 mph - N/A   Mostly Cloudy
7:55 AM 57.7 °F 53.8 °F 87% 29.86 in 10.0 mi North 4.6 mph - N/A   Scattered Clouds
8:15 AM 58.1 °F 53.8 °F 86% 29.86 in 10.0 mi NNW 5.8 mph - N/A   Mostly Cloudy
8:35 AM 58.8 °F 54.0 °F 84% 29.86 in 10.0 mi NNW 4.6 mph - N/A   Overcast
8:55 AM 60.1 °F 54.3 °F 81% 29.86 in 10.0 mi NNW 5.8 mph - N/A   Overcast
9:15 AM 60.4 °F 54.0 °F 79% 29.86 in 10.0 mi NNW 4.6 mph - N/A   Scattered Clouds
9:35 AM 61.9 °F 54.3 °F 76% 29.86 in 10.0 mi NW 4.6 mph - N/A   Scattered Clouds
9:55 AM 61.9 °F 53.8 °F 75% 29.86 in 10.0 mi Calm Calm - N/A   Scattered Clouds
10:15 AM 63.7 °F 52.7 °F 67% 29.85 in 10.0 mi North 4.6 mph - N/A   Scattered Clouds
10:35 AM 64.9 °F 52.0 °F 63% 29.84 in 10.0 mi Calm Calm - N/A   Clear
10:55 AM 64.9 °F 51.4 °F 62% 29.84 in 10.0 mi WNW 5.8 mph - N/A   Clear
11:15 AM 66.2 °F 50.4 °F 57% 29.83 in 10.0 mi NNW 5.8 mph - N/A   Clear
11:35 AM 68.0 °F 49.6 °F 52% 29.81 in 10.0 mi NNW 3.5 mph - N/A   Clear
11:55 AM 68.2 °F 48.7 °F 50% 29.81 in 10.0 mi Calm Calm - N/A   Clear
12:15 PM 69.1 °F 49.3 °F 49% 29.81 in 10.0 mi NNW 5.8 mph - N/A   Scattered Clouds
12:35 PM 69.8 °F 48.0 °F 46% 29.81 in 10.0 mi WNW 9.2 mph - N/A   Scattered Clouds
12:55 PM 69.8 °F 48.0 °F 46% 29.81 in 10.0 mi West 4.6 mph - N/A   Scattered Clouds
1:15 PM 70.3 °F 47.7 °F 44% 29.80 in 10.0 mi West 10.4 mph - N/A   Scattered Clouds
1:35 PM 68.4 °F 48.7 °F 49% 29.80 in 10.0 mi NW 10.4 mph 19.6 mph N/A   Mostly Cloudy
1:55 PM 68.2 °F 48.0 °F 48% 29.80 in 10.0 mi West 5.8 mph - N/A   Overcast
2:15 PM 67.6 °F 47.3 °F 48% 29.80 in 10.0 mi West 12.7 mph - N/A   Mostly Cloudy
2:35 PM 66.6 °F 43.2 °F 43% 29.79 in 10.0 mi West 10.4 mph 20.7 mph N/A   Mostly Cloudy
2:55 PM 66.9 °F 43.3 °F 42% 29.79 in 10.0 mi West 4.6 mph - N/A Thunderstorm Thunderstorm
3:15 PM 67.8 °F 46.8 °F 47% 29.79 in 10.0 mi West 6.9 mph - N/A   Overcast
3:35 PM 68.9 °F 48.4 °F 48% 29.79 in 10.0 mi WNW 13.8 mph 18.4 mph N/A   Overcast
3:55 PM 67.6 °F 45.9 °F 46% 29.79 in 10.0 mi WNW 10.4 mph - N/A   Overcast
4:15 PM 66.2 °F 46.4 °F 49% 29.78 in 10.0 mi WNW 11.5 mph - N/A   Overcast
4:35 PM 66.2 °F 47.8 °F 52% 29.78 in 10.0 mi WNW 10.4 mph - N/A   Mostly Cloudy
4:55 PM 66.2 °F 48.4 °F 53% 29.79 in 10.0 mi WNW 10.4 mph - N/A   Mostly Cloudy
5:15 PM 63.7 °F 52.2 °F 66% 29.79 in 10.0 mi WNW 8.1 mph - N/A   Light Drizzle
5:35 PM 64.0 °F 51.8 °F 64% 29.78 in 10.0 mi West 4.6 mph - N/A   Scattered Clouds
5:55 PM 64.4 °F 51.3 °F 62% 29.78 in 10.0 mi West 4.6 mph - N/A   Clear
6:15 PM 63.5 °F 50.5 °F 63% 29.78 in 10.0 mi West 3.5 mph - N/A   Clear
6:35 PM 63.1 °F 51.4 °F 66% 29.78 in 10.0 mi Calm Calm - N/A   Clear
6:55 PM 62.6 °F 51.6 °F 67% 29.79 in 10.0 mi West 3.5 mph - N/A   Clear
7:15 PM 62.6 °F 51.4 °F 67% 29.79 in 10.0 mi Calm Calm - N/A   Clear
7:35 PM 62.2 °F 51.8 °F 69% 29.79 in 10.0 mi West 3.5 mph - N/A   Clear
7:55 PM 62.2 °F 51.3 °F 67% 29.80 in 10.0 mi West 5.8 mph - N/A   Clear
8:15 PM 61.9 °F 51.4 °F 69% 29.81 in 10.0 mi West 6.9 mph - N/A   Clear
8:35 PM 61.7 °F 50.7 °F 67% 29.81 in 10.0 mi West 6.9 mph - N/A   Clear
8:55 PM 61.0 °F 50.4 °F 68% 29.82 in 10.0 mi WNW 4.6 mph - N/A   Clear
9:15 PM 61.0 °F 50.4 °F 68% 29.83 in 10.0 mi West 4.6 mph - N/A   Clear
9:35 PM 60.8 °F 50.0 °F 68% 29.83 in 10.0 mi West 4.6 mph - N/A   Clear
9:55 PM 59.9 °F 49.6 °F 69% 29.84 in 10.0 mi West 3.5 mph - N/A   Clear
10:15 PM 59.4 °F 49.3 °F 69% 29.84 in 10.0 mi West 3.5 mph - N/A   Clear
10:35 PM 59.0 °F 49.1 °F 70% 29.84 in 10.0 mi West 3.5 mph - N/A   Clear
10:55 PM 57.0 °F 50.0 °F 77% 29.84 in 10.0 mi West 3.5 mph - N/A   Clear
11:15 PM 57.2 °F 49.5 °F 75% 29.84 in 10.0 mi West 4.6 mph - N/A   Clear
11:35 PM 57.2 °F 48.7 °F 73% 29.85 in 10.0 mi West 4.6 mph - N/A   Clear
11:55 PM 56.8 °F 49.3 °F 76% 29.85 in 10.0 mi West 5.8 mph - N/A   Clear